Flag for Madagascar Weather past 2 weeks in Antananarivo, Madagascar

66 °F

Partly sunny.

Feels Like: 66 °F
Forecast: 63 / 82 °F
Wind: No wind

Location: Antananarivo / Ivato

Current Time: Nov 27, 2015 at 5:48:38 AM

Latest Report: Nov 27, 2015 at 5:30 AM

Visibility: N/A

Pressure: 30.09 "Hg (25.88 "Hg at 1287m altitude)

Humidity: 100%

Dew point: 66 °F

Location of AntananarivoLocation

Historic Weather in Antananarivo — Graph


Antananarivo temperature yesterday

Maximum temperature yesterday: 82 °F (at 12:00 PM)
Minimum temperature yesterday: 64 °F (at 12:00 AM)
Average temperature yesterday: 72 °F

Past Weeks' High & Low Weather Summary

High91 °F (Nov 16, 1:00 PM)100% (Nov 12, 5:00 AM)30.27 "Hg (Nov 12, 5:00 AM)
Low52 °F (Nov 13, 4:00 AM)23% (Nov 16, 1:00 PM)29.95 "Hg (Nov 24, 2:00 PM)
Average72 °F78%30.11 "Hg
* Reported Nov 12 5:00 AM — Nov 27 5:00 AM, Antananarivo, Weather by CustomWeather, © 2015

Note: Actual official high and low records may vary slightly from our data, if they occured in-between our weather recording intervals... More about our weather records


Antananarivo weather history for previous 24 hours

Time TempWeatherWind HumidityBarometerVisibility
5:00 AM
Fri, Nov 27
66 °FPartly cloudy.No wind100%30.09 "HgN/A
4:30 AM66 °FPassing clouds.No wind100%30.07 "HgN/A
4:00 AM68 °FPassing clouds.No wind100%30.07 "HgN/A
3:30 AM66 °FPassing clouds.No wind100%30.07 "HgN/A
3:00 AM66 °FPassing clouds.No wind100%30.07 "HgN/A
2:30 AM66 °FPassing clouds.No wind100%30.07 "HgN/A
2:00 AM66 °FPassing clouds.1 mph100%30.07 "HgN/A
1:30 AM66 °FPassing clouds.3 mph100%30.07 "HgN/A
1:00 AM66 °FPassing clouds.No wind100%30.07 "HgN/A
12:30 AM66 °FPassing clouds.No wind100%30.07 "HgN/A
12:00 AM66 °FPassing clouds.3 mph100%30.09 "HgN/A
11:30 PM
Thu, Nov 26
66 °FPassing clouds.No wind100%30.09 "HgN/A
11:00 PM68 °FPassing clouds.3 mph100%30.09 "HgN/A
10:30 PM68 °FPassing clouds.3 mph100%30.09 "HgN/A
10:00 PM68 °FPassing clouds.7 mph100%30.09 "HgN/A
9:30 PM70 °FPassing clouds.8 mph100%30.09 "HgN/A
9:00 PM70 °FPassing clouds.10 mph100%30.09 "HgN/A
8:30 PM70 °FPassing clouds.7 mph100%30.09 "HgN/A
8:00 PM72 °FPassing clouds.7 mph94%30.09 "HgN/A
7:30 PM70 °FThundershowers. Passing clouds.7 mph100%30.07 "HgN/A
7:00 PM72 °FThundershowers. Passing clouds.9 mph94%30.07 "HgN/A
6:30 PM72 °FPassing clouds.8 mph94%30.04 "HgN/A
6:00 PM72 °FScattered clouds.8 mph94%30.04 "HgN/A
5:30 PM77 °FScattered clouds.9 mph79%30.01 "HgN/A
5:00 PM77 °FScattered clouds.12 mph79%30.01 "HgN/A
4:30 PM79 °FScattered clouds.3 mph79%30.01 "HgN/A
4:00 PM77 °FScattered clouds.5 mph83%30.01 "HgN/A
3:30 PM77 °FScattered clouds.5 mph79%30.01 "HgN/A
3:00 PM77 °FScattered clouds.No wind89%30.01 "HgN/A
2:30 PM73 °FThunderstorms. Scattered clouds.No wind100%30.04 "HgN/A
2:00 PM68 °FThunderstorms. Broken clouds.2 mph100%30.04 "HgN/A
1:30 PM64 °FThunderstorms. Partly sunny.18 mph100%30.07 "Hg2 mi
1:00 PM77 °FThunderstorms. Partly sunny.14 mph74%30.07 "HgN/A
12:30 PM81 °FPartly sunny.10 mph66%30.07 "HgN/A
12:00 PM82 °FPartly sunny.10 mph62%30.07 "HgN/A
11:30 AM81 °FPartly sunny.10 mph70%30.07 "HgN/A
11:00 AM81 °FPartly sunny.10 mph70%30.09 "HgN/A
10:30 AM79 °FPartly sunny.12 mph70%30.09 "HgN/A
10:00 AM79 °FPartly sunny.8 mph79%30.09 "HgN/A
9:30 AM75 °FPartly sunny.10 mph89%30.09 "HgN/A
9:00 AM75 °FPartly sunny.9 mph83%30.12 "HgN/A
8:30 AM73 °FPartly sunny.8 mph94%30.09 "HgN/A
8:00 AM73 °FScattered clouds.10 mph89%30.09 "HgN/A
7:30 AM72 °FBroken clouds.6 mph100%30.09 "HgN/A
7:00 AM68 °FBroken clouds.No wind100%30.09 "HgN/A
6:30 AM66 °FPartly sunny.No wind100%30.07 "HgN/A
6:00 AM66 °FPartly sunny.No wind100%30.07 "HgN/A
5:30 AM66 °FPartly sunny.No wind100%30.07 "HgN/A
5:00 AM66 °FPassing clouds.No wind100%30.04 "HgN/A
Weather by CustomWeather, © 2015

See weather overviewHow to use our weather pages